Location: Boston
(42.3580°N, 71.0600°W)
Time: 09:33:03
(UTC-05:00)

Vanguard 2 Rocket - Visible Passes

Search period start: 17 December 2018 00:00
Search period end: 27 December 2018 00:00
Orbit: 554 x 3327 km, 32.9° (Epoch: 16 December)

Date Brightness Start Highest point End Pass type
(mag) Time Alt. Az. Time Alt. Az. Time Alt. Az.
17 Dec 8.1 06:15:49 10° SW 06:18:51 21° S 06:22:01 10° ESE visible
18 Dec 8.2 05:17:01 10° SSW 05:19:53 18° SSE 05:22:34 10° SE visible
19 Dec 8.5 04:21:04 15° SSE 04:21:04 15° SSE 04:23:13 10° SE visible
19 Dec 7.9 06:29:51 10° SW 06:33:02 23° S 06:36:18 10° SE visible
20 Dec 7.9 05:31:00 11° SW 05:34:04 22° S 05:37:08 10° ESE visible
21 Dec 8.0 04:35:02 21° S 04:35:03 21° S 04:38:08 10° ESE visible
22 Dec 9.1 03:39:03 11° SE 03:39:03 11° SE 03:39:12 10° ESE visible
22 Dec 7.7 05:44:52 10° SW 05:48:15 23° S 05:51:25 10° SE visible
23 Dec 7.7 04:48:51 24° S 04:49:15 25° S 04:52:38 10° ESE visible
24 Dec 8.7 03:52:48 16° SE 03:52:48 16° SE 03:53:55 10° ESE visible
24 Dec 7.8 05:59:01 10° WSW 06:02:25 21° S 06:05:28 10° SE visible
25 Dec 7.7 05:02:33 24° SSW 05:03:28 26° S 05:06:54 10° SE visible
26 Dec 8.3 04:06:28 22° SE 04:06:28 22° SE 04:08:20 10° ESE visible
26 Dec 8.1 06:13:36 10° WSW 06:16:31 17° SSW 06:19:09 10° SSE visible
